Time,TemperatureF,DewpointF,PressureIn,WindDirection,WindDirectionDegrees,WindSpeedMPH,WindSpeedGustMPH,Humidity,HourlyPrecipIn,Conditions,Clouds,dailyrainin,SolarRadiationWatts/m^2,SoftwareType,DateUTC
2013-02-23 00:04:00,49.3,42.0,30.22,West,260,4.0,6.0,77,0.00,,,0.00,0,weatherlink.com 1.10,2013-02-23 08:04:00,
2013-02-23 00:19:00,49.1,42.0,30.22,West,271,3.0,6.0,75,0.00,,,0.00,0,weatherlink.com 1.10,2013-02-23 08:19:00,
2013-02-23 00:35:00,49.0,41.0,30.21,WSW,258,1.0,4.0,75,0.00,,,0.00,0,weatherlink.com 1.10,2013-02-23 08:35:00,
2013-02-23 00:50:00,48.5,41.0,30.21,WNW,295,0.0,7.0,75,0.00,,,0.00,0,weatherlink.com 1.10,2013-02-23 08:50:00,
2013-02-23 01:05:00,48.0,40.0,30.21,West,262,1.0,6.0,74,0.00,,,0.00,0,weatherlink.com 1.10,2013-02-23 09:05:00,
2013-02-23 01:20:00,47.9,41.0,30.22,West,262,0.0,2.0,76,0.00,,,0.00,0,weatherlink.com 1.10,2013-02-23 09:20:00,
2013-02-23 01:35:00,47.6,41.0,30.21,West,262,0.0,1.0,78,0.00,,,0.00,0,weatherlink.com 1.10,2013-02-23 09:35:00,
2013-02-23 01:50:00,47.2,41.0,30.21,West,260,1.0,3.0,80,0.00,,,0.00,0,weatherlink.com 1.10,2013-02-23 09:50:00,
2013-02-23 02:05:00,47.1,42.0,30.21,West,280,3.0,4.0,83,0.00,,,0.00,0,weatherlink.com 1.10,2013-02-23 10:05:00,
2013-02-23 02:20:00,47.3,43.0,30.20,West,274,3.0,5.0,85,0.00,,,0.00,0,weatherlink.com 1.10,2013-02-23 10:20:00,
2013-02-23 02:35:00,47.4,43.0,30.20,West,267,4.0,4.0,86,0.00,,,0.00,0,weatherlink.com 1.10,2013-02-23 10:35:00,
2013-02-23 02:50:00,47.5,44.0,30.19,West,270,0.0,2.0,87,0.00,,,0.00,0,weatherlink.com 1.10,2013-02-23 10:50:00,
2013-02-23 03:05:00,47.5,44.0,30.19,West,270,0.0,2.0,87,0.00,,,0.00,0,weatherlink.com 1.10,2013-02-23 11:05:00,
2013-02-23 03:20:00,47.5,44.0,30.18,West,270,1.0,1.0,88,0.00,,,0.00,0,weatherlink.com 1.10,2013-02-23 11:20:00,
2013-02-23 03:35:00,47.6,44.0,30.19,West,270,0.0,2.0,88,0.00,,,0.00,0,weatherlink.com 1.10,2013-02-23 11:35:00,
2013-02-23 03:50:00,47.9,45.0,30.19,West,270,2.0,3.0,90,0.00,,,0.00,0,weatherlink.com 1.10,2013-02-23 11:50:00,
2013-02-23 04:05:00,48.1,46.0,30.19,West,259,0.0,2.0,91,0.00,,,0.00,0,weatherlink.com 1.10,2013-02-23 12:05:00,
2013-02-23 04:20:00,48.4,46.0,30.18,West,268,1.0,4.0,91,0.00,,,0.00,0,weatherlink.com 1.10,2013-02-23 12:20:00,
2013-02-23 04:35:00,48.3,46.0,30.17,West,272,0.0,4.0,91,0.00,,,0.00,0,weatherlink.com 1.10,2013-02-23 12:35:00,
2013-02-23 04:50:00,48.0,45.0,30.18,West,270,4.0,10.0,90,0.00,,,0.00,0,weatherlink.com 1.10,2013-02-23 12:50:00,
2013-02-23 05:05:00,47.9,45.0,30.16,West,266,6.0,9.0,89,0.00,,,0.00,0,weatherlink.com 1.10,2013-02-23 13:05:00,
2013-02-23 05:20:00,47.4,45.0,30.16,West,269,3.0,8.0,90,0.00,,,0.00,0,weatherlink.com 1.10,2013-02-23 13:20:00,
2013-02-23 05:35:00,47.1,44.0,30.18,West,271,0.0,7.0,89,0.00,,,0.00,0,weatherlink.com 1.10,2013-02-23 13:35:00,
2013-02-23 05:50:00,46.6,44.0,30.18,West,275,3.0,4.0,89,0.00,,,0.00,0,weatherlink.com 1.10,2013-02-23 13:50:00,
2013-02-23 06:05:00,46.1,43.0,30.18,West,277,5.0,8.0,89,0.00,,,0.00,0,weatherlink.com 1.10,2013-02-23 14:05:00,
2013-02-23 06:20:00,45.6,43.0,30.19,West,276,5.0,9.0,89,0.00,,,0.00,0,weatherlink.com 1.10,2013-02-23 14:20:00,
2013-02-23 06:35:00,45.3,42.0,30.19,West,265,7.0,8.0,89,0.00,,,0.00,0,weatherlink.com 1.10,2013-02-23 14:35:00,
2013-02-23 06:50:00,45.2,42.0,30.20,West,275,6.0,8.0,89,0.00,,,0.00,0,weatherlink.com 1.10,2013-02-23 14:50:00,
2013-02-23 07:05:00,45.1,42.0,30.20,WNW,289,5.0,9.0,88,0.00,,,0.00,12,weatherlink.com 1.10,2013-02-23 15:05:00,
2013-02-23 07:20:00,45.0,42.0,30.22,West,279,5.0,8.0,88,0.00,,,0.00,25,weatherlink.com 1.10,2013-02-23 15:20:00,
2013-02-23 07:35:00,45.1,42.0,30.23,West,275,6.0,9.0,87,0.00,,,0.00,33,weatherlink.com 1.10,2013-02-23 15:35:00,
2013-02-23 07:50:00,45.3,41.0,30.23,West,269,5.0,9.0,84,0.00,,,0.00,40,weatherlink.com 1.10,2013-02-23 15:50:00,
2013-02-23 08:05:00,45.6,40.0,30.23,WNW,291,4.0,12.0,81,0.00,,,0.00,44,weatherlink.com 1.10,2013-02-23 16:05:00,
2013-02-23 08:20:00,45.9,40.0,30.24,West,281,6.0,11.0,79,0.00,,,0.00,49,weatherlink.com 1.10,2013-02-23 16:20:00,
2013-02-23 08:35:00,46.0,39.0,30.25,WNW,293,4.0,12.0,77,0.00,,,0.00,54,weatherlink.com 1.10,2013-02-23 16:35:00,
2013-02-23 08:50:00,46.3,39.0,30.25,West,277,4.0,12.0,75,0.00,,,0.00,62,weatherlink.com 1.10,2013-02-23 16:50:00,
2013-02-23 09:05:00,46.4,39.0,30.25,West,271,4.0,10.0,75,0.00,,,0.00,418,weatherlink.com 1.10,2013-02-23 17:05:00,
2013-02-23 09:21:00,46.8,39.0,30.25,West,279,3.0,8.0,74,0.00,,,0.00,459,weatherlink.com 1.10,2013-02-23 17:21:00,
2013-02-23 09:36:00,47.3,39.0,30.25,West,263,4.0,7.0,73,0.00,,,0.00,503,weatherlink.com 1.10,2013-02-23 17:36:00,
2013-02-23 09:51:00,47.6,39.0,30.25,West,275,3.0,7.0,72,0.00,,,0.00,547,weatherlink.com 1.10,2013-02-23 17:51:00,
2013-02-23 10:06:00,48.9,40.0,30.24,West,274,4.0,7.0,72,0.00,,,0.00,584,weatherlink.com 1.10,2013-02-23 18:06:00,
2013-02-23 10:21:00,49.3,40.0,30.24,West,271,1.0,6.0,71,0.00,,,0.00,599,weatherlink.com 1.10,2013-02-23 18:21:00,
2013-02-23 10:36:00,49.2,40.0,30.24,West,272,6.0,8.0,70,0.00,,,0.00,613,weatherlink.com 1.10,2013-02-23 18:36:00,
2013-02-23 10:51:00,50.2,40.0,30.24,West,274,3.0,7.0,67,0.00,,,0.00,656,weatherlink.com 1.10,2013-02-23 18:51:00,
2013-02-23 11:06:00,50.5,40.0,30.24,West,276,3.0,7.0,67,0.00,,,0.00,675,weatherlink.com 1.10,2013-02-23 19:06:00,
2013-02-23 11:21:00,51.3,39.0,30.24,WNW,288,0.0,6.0,62,0.00,,,0.00,640,weatherlink.com 1.10,2013-02-23 19:21:00,
2013-02-23 11:36:00,51.2,38.0,30.24,West,273,7.0,8.0,62,0.00,,,0.00,640,weatherlink.com 1.10,2013-02-23 19:36:00,
2013-02-23 11:51:00,51.8,39.0,30.23,WNW,286,2.0,5.0,62,0.00,,,0.00,276,weatherlink.com 1.10,2013-02-23 19:51:00,
2013-02-23 12:06:00,53.5,38.0,30.22,West,277,2.0,5.0,57,0.00,,,0.00,185,weatherlink.com 1.10,2013-02-23 20:06:00,
2013-02-23 12:21:00,53.3,39.0,30.21,NNW,331,1.0,5.0,59,0.00,,,0.00,272,weatherlink.com 1.10,2013-02-23 20:21:00,
2013-02-23 12:36:00,53.6,37.0,30.21,NNE,25,3.0,8.0,54,0.00,,,0.00,93,weatherlink.com 1.10,2013-02-23 20:36:00,
2013-02-23 12:51:00,53.6,37.0,30.21,WNW,284,1.0,10.0,53,0.00,,,0.00,60,weatherlink.com 1.10,2013-02-23 20:51:00,
2013-02-23 13:06:00,53.5,37.0,30.20,West,273,6.0,8.0,54,0.00,,,0.00,58,weatherlink.com 1.10,2013-02-23 21:06:00,
2013-02-23 13:21:00,53.5,36.0,30.19,SW,216,2.0,7.0,52,0.00,,,0.00,83,weatherlink.com 1.10,2013-02-23 21:21:00,
2013-02-23 13:36:00,53.8,34.0,30.18,West,281,0.0,9.0,47,0.00,,,0.00,62,weatherlink.com 1.10,2013-02-23 21:36:00,
2013-02-23 13:51:00,54.0,35.0,30.18,West,275,5.0,8.0,49,0.00,,,0.00,37,weatherlink.com 1.10,2013-02-23 21:51:00,
2013-02-23 14:06:00,54.1,36.0,30.17,West,273,0.0,10.0,50,0.00,,,0.00,35,weatherlink.com 1.10,2013-02-23 22:06:00,
2013-02-23 14:21:00,54.4,34.0,30.17,WNW,289,3.0,9.0,46,0.00,,,0.00,30,weatherlink.com 1.10,2013-02-23 22:21:00,
2013-02-23 14:36:00,54.6,33.0,30.17,West,271,3.0,10.0,45,0.00,,,0.00,28,weatherlink.com 1.10,2013-02-23 22:36:00,
2013-02-23 14:51:00,54.9,35.0,30.16,West,276,8.0,9.0,47,0.00,,,0.00,58,weatherlink.com 1.10,2013-02-23 22:51:00,
2013-02-23 15:06:00,54.5,35.0,30.16,WNW,290,2.0,11.0,48,0.00,,,0.00,26,weatherlink.com 1.10,2013-02-23 23:06:00,
2013-02-23 15:21:00,54.2,35.0,30.16,West,269,5.0,10.0,48,0.00,,,0.00,26,weatherlink.com 1.10,2013-02-23 23:21:00,
2013-02-23 15:36:00,54.0,34.0,30.16,West,267,5.0,9.0,47,0.00,,,0.00,91,weatherlink.com 1.10,2013-02-23 23:36:00,
2013-02-23 15:51:00,53.9,34.0,30.16,West,262,7.0,10.0,47,0.00,,,0.00,46,weatherlink.com 1.10,2013-02-23 23:51:00,
2013-02-23 16:06:00,53.8,34.0,30.16,West,265,9.0,11.0,48,0.00,,,0.00,123,weatherlink.com 1.10,2013-02-24 00:06:00,
2013-02-23 16:21:00,53.4,34.0,30.16,West,275,8.0,10.0,49,0.00,,,0.00,23,weatherlink.com 1.10,2013-02-24 00:21:00,
2013-02-23 16:36:00,53.2,35.0,30.17,West,265,8.0,10.0,51,0.00,,,0.00,19,weatherlink.com 1.10,2013-02-24 00:36:00,
2013-02-23 16:51:00,53.1,36.0,30.16,West,269,5.0,7.0,52,0.00,,,0.00,16,weatherlink.com 1.10,2013-02-24 00:51:00,
2013-02-23 17:06:00,52.7,36.0,30.17,West,280,1.0,10.0,53,0.00,,,0.00,14,weatherlink.com 1.10,2013-02-24 01:06:00,
2013-02-23 17:21:00,52.2,37.0,30.17,West,267,4.0,7.0,56,0.00,,,0.00,9,weatherlink.com 1.10,2013-02-24 01:21:00,
2013-02-23 17:36:00,51.7,37.0,30.17,West,271,2.0,8.0,57,0.00,,,0.00,5,weatherlink.com 1.10,2013-02-24 01:36:00,
2013-02-23 17:52:00,51.2,37.0,30.18,West,270,3.0,6.0,59,0.00,,,0.00,0,weatherlink.com 1.10,2013-02-24 01:52:00,
2013-02-23 18:07:00,50.7,37.0,30.18,West,281,4.0,7.0,60,0.00,,,0.00,0,weatherlink.com 1.10,2013-02-24 02:07:00,
2013-02-23 18:22:00,50.0,37.0,30.19,West,272,5.0,7.0,62,0.00,,,0.00,0,weatherlink.com 1.10,2013-02-24 02:22:00,
2013-02-23 18:37:00,49.5,38.0,30.20,West,272,1.0,6.0,64,0.00,,,0.00,0,weatherlink.com 1.10,2013-02-24 02:37:00,
2013-02-23 18:52:00,49.0,38.0,30.20,West,268,3.0,7.0,66,0.00,,,0.00,0,weatherlink.com 1.10,2013-02-24 02:52:00,
2013-02-23 19:07:00,48.5,38.0,30.20,West,281,4.0,5.0,68,0.00,,,0.00,0,weatherlink.com 1.10,2013-02-24 03:07:00,
2013-02-23 19:22:00,47.8,38.0,30.19,West,279,3.0,5.0,69,0.00,,,0.00,0,weatherlink.com 1.10,2013-02-24 03:22:00,
2013-02-23 19:37:00,47.3,38.0,30.20,West,270,3.0,5.0,71,0.00,,,0.00,0,weatherlink.com 1.10,2013-02-24 03:37:00,
2013-02-23 19:52:00,47.2,39.0,30.20,West,271,4.0,7.0,72,0.00,,,0.00,0,weatherlink.com 1.10,2013-02-24 03:52:00,
2013-02-23 20:07:00,47.0,39.0,30.20,West,264,5.0,7.0,73,0.00,,,0.00,0,weatherlink.com 1.10,2013-02-24 04:07:00,
2013-02-23 20:22:00,47.0,39.0,30.20,West,277,5.0,8.0,74,0.00,,,0.00,0,weatherlink.com 1.10,2013-02-24 04:22:00,
2013-02-23 20:37:00,47.0,39.0,30.21,West,269,4.0,8.0,73,0.00,,,0.00,0,weatherlink.com 1.10,2013-02-24 04:37:00,
2013-02-23 20:52:00,46.8,39.0,30.21,West,271,4.0,6.0,74,0.00,,,0.00,0,weatherlink.com 1.10,2013-02-24 04:52:00,
2013-02-23 21:07:00,46.2,39.0,30.21,West,276,4.0,6.0,75,0.00,,,0.00,0,weatherlink.com 1.10,2013-02-24 05:07:00,
2013-02-23 21:22:00,45.7,38.0,30.22,West,268,3.0,5.0,75,0.00,,,0.00,0,weatherlink.com 1.10,2013-02-24 05:22:00,
2013-02-23 21:37:00,45.7,38.0,30.22,West,269,4.0,7.0,75,0.00,,,0.00,0,weatherlink.com 1.10,2013-02-24 05:37:00,
2013-02-23 21:52:00,46.0,37.0,30.22,West,265,5.0,8.0,72,0.00,,,0.00,0,weatherlink.com 1.10,2013-02-24 05:52:00,
2013-02-23 22:07:00,46.1,37.0,30.22,West,269,3.0,7.0,70,0.00,,,0.00,0,weatherlink.com 1.10,2013-02-24 06:07:00,
2013-02-23 22:22:00,45.8,38.0,30.22,West,273,4.0,6.0,73,0.00,,,0.00,0,weatherlink.com 1.10,2013-02-24 06:22:00,
2013-02-23 22:37:00,45.1,38.0,30.22,WNW,283,5.0,7.0,75,0.00,,,0.00,0,weatherlink.com 1.10,2013-02-24 06:37:00,
2013-02-23 22:52:00,44.7,38.0,30.22,West,274,5.0,8.0,77,0.00,,,0.00,0,weatherlink.com 1.10,2013-02-24 06:52:00,
2013-02-23 23:07:00,44.8,38.0,30.22,West,264,5.0,8.0,76,0.00,,,0.00,0,weatherlink.com 1.10,2013-02-24 07:07:00,
2013-02-23 23:22:00,44.5,38.0,30.22,West,272,6.0,6.0,77,0.00,,,0.00,0,weatherlink.com 1.10,2013-02-24 07:22:00,
2013-02-23 23:37:00,43.8,37.0,30.22,West,267,3.0,6.0,78,0.00,,,0.00,0,weatherlink.com 1.10,2013-02-24 07:37:00,
2013-02-23 23:52:00,43.6,37.0,30.23,West,272,5.0,6.0,77,0.00,,,0.00,0,weatherlink.com 1.10,2013-02-24 07:52:00,